Location: Adamstown South Public School
(32.9318°S, 151.7012°E)
Time: 19:40:27
(UTC+00:00)

COSMOS 2455 - Pass Details

Date: 07 June 2020
Orbit: 899 x 911 km, 67.1° (Epoch: 06 July)

Event Time Altitude Azimuth Distance (km) Brightness Sun altitude
Rises 08:58:22 0° 203° (SSW) 3,547 6.1 -25.5°
Reaches altitude 10° 09:00:54 10° 201° (SSW) 2,599 5.3 -26.1°
Enters shadow 09:06:20 66° 157° (SSE) 983 2.8 -27.2°
